Theta_e
340 345 347 344 346 344 345 345 345 345 345 344 344 344 344 344 342 340 342 345 345 343 342 340 339 338 337 336 335 334 334 333 334 334 333 332 333 332 332 333 336 331 336
343 344 345 346 345 345 345 344 343 343 342 342 342 342 342 341 340 339 339 341 343 342 340 337 337 336 335 333 332 332 332 332 332 332 330 331 331 331 331 331 332 331 331
342 343 345 345 344 345 345 345 344 343 342 340 340 339 339 339 338 338 337 338 339 343 341 339 336 334 334 333 332 331 332 331 332 330 328 329 330 330 330 330 330 330 331
343 344 344 343 345 344 344 345 344 343 342 341 340 338 337 335 334 335 336 336 336 338 340 339 336 334 333 332 332 330 331 332 331 328 328 327 327 331 331 331 330 328 330
343 344 343 343 344 342 343 344 345 344 343 342 339 337 336 333 333 332 334 336 335 335 337 339 336 334 332 331 331 330 329 328 326 327 327 328 328 330 329 328 326 326 327
343 344 342 344 344 343 341 342 345 345 344 340 338 337 335 333 333 333 332 333 333 334 333 336 338 336 333 332 331 330 328 325 325 326 327 327 327 331 328 327 325 325 325
343 344 344 343 344 343 342 342 343 344 342 340 339 337 335 334 332 332 332 333 332 330 331 331 332 334 335 333 332 331 328 326 328 326 325 327 328 328 330 326 325 324 324
342 344 345 338 340 341 342 342 343 343 343 341 340 340 337 336 334 333 332 331 330 330 329 330 329 329 329 330 331 332 331 329 328 327 326 326 324 326 329 329 326 325 325
343 344 344 344 340 335 337 339 340 343 342 341 340 340 340 339 338 336 335 332 331 330 329 329 329 328 328 328 328 329 328 327 324 325 323 324 323 326 329 331 330 328 327
343 343 343 344 343 343 340 332 334 337 338 339 337 335 335 335 336 335 333 334 333 333 332 332 331 331 330 328 328 329 327 326 325 325 324 324 322 326 329 331 332 332 330
340 342 343 342 343 343 341 335 330 331 333 333 333 330 332 338 338 336 333 333 335 336 336 335 335 334 333 331 329 327 325 328 328 328 328 323 324 328 328 332 332 332 334
337 339 341 342 342 342 340 339 337 337 336 335 335 335 335 336 336 335 329 328 331 332 334 335 336 334 329 332 332 326 330 329 328 328 328 323 325 329 330 331 331 332 333
337 339 340 341 342 341 340 340 339 337 337 336 336 335 335 334 335 334 334 334 336 326 335 333 334 334 333 333 332 332 331 331 330 329 328 324 326 330 331 331 332 332 332
335 337 339 341 340 340 340 339 339 337 337 336 336 335 334 334 334 334 333 333 334 334 333 334 334 334 333 333 333 332 331 331 330 330 328 322 325 329 332 332 333 333 334
334 336 338 340 340 340 339 339 339 338 337 337 337 337 335 335 334 334 333 333 332 333 332 332 332 332 332 332 332 331 330 330 330 330 330 320 322 327 331 333 334 334 334
334 335 337 338 339 339 339 339 339 339 339 339 338 338 337 336 336 335 334 334 333 333 332 332 331 331 331 331 330 331 330 330 330 330 330 330 323 325 328 331 332 333 333
333 335 336 337 339 339 339 339 340 339 338 338 338 339 338 337 336 335 334 334 334 334 333 332 331 329 329 330 329 330 330 330 330 329 330 330 330 321 322 325 328 330 331
332 332 334 334 335 337 338 339 339 339 339 338 338 338 338 337 337 336 335 334 335 335 333 332 331 328 325 324 324 325 325 327 328 328 329 329 330 328 324 323 323 324 326
331 331 332 333 333 334 336 336 337 338 338 338 338 338 338 337 336 335 335 335 336 335 334 332 331 330 328 325 324 326 326 325 326 325 325 325 324 324 325 321 321 324 328
324 325 327 328 329 330 332 334 335 335 336 337 337 336 336 336 336 335 335 335 334 333 332 333 332 332 329 328 324 323 325 325 325 325 324 324 325 326 324 321 318 314 319
317 317 317 318 320 321 322 323 324 325 326 325 325 326 326 327 328 329 329 329 330 329 331 332 333 331 329 330 326 324 326 328 328 328 328 326 325 323 318 316 311 311 312
316 316 316 316 318 319 320 321 321 321 321 321 322 322 323 325 327 326 325 324 325 326 327 331 331 329 329 331 325 324 319 323 326 326 326 324 311 308 307 304 305 306 308
315 315 314 315 315 316 316 315 315 316 318 318 320 322 323 323 324 325 325 325 326 327 327 329 332 328 327 331 330 324 316 315 318 320 314 309 304 301 302 302 299 300 302
313 314 313 313 313 312 311 312 313 314 314 318 320 321 320 317 318 320 319 321 323 327 327 327 327 328 328 325 327 327 327 323 316 311 305 298 296 296 295 297 296 296 298
307 310 311 310 308 306 307 308 310 312 314 316 318 317 316 316 314 313 311 313 316 318 320 320 322 323 324 323 325 323 323 322 321 317 305 297 294 292 292 293 295 292 294
306 307 308 307 306 304 304 304 306 309 312 314 316 315 316 315 314 311 307 307 310 312 315 319 321 318 322 322 322 321 321 317 315 314 309 301 294 289 288 291 291 291 292
Wind_Speed
10 12 11 12 11 11 11 11 12 12 12 11 11 13 12 11 11 11 11 11 14 14 15 12 12 12 12 12 12 11 11 12 12 12 12 11 13 12 11 10 8 12 14
13 12 10 11 11 11 10 11 11 10 10 10 9 9 9 9 9 9 9 9 10 11 13 9 10 11 11 11 10 10 9 10 10 11 7 9 12 11 10 11 14 10 11
14 12 12 9 10 9 9 10 10 10 10 9 9 7 7 6 6 7 7 8 7 9 9 12 8 10 10 10 10 9 9 7 9 8 4 7 9 9 9 9 10 9 10
13 12 11 10 9 9 6 9 10 10 9 9 8 7 6 5 4 5 6 7 7 7 8 9 8 8 9 9 9 9 10 9 7 4 4 7 7 10 8 8 8 7 8
13 10 10 9 9 9 6 5 9 11 10 9 6 5 5 5 5 5 4 7 7 6 5 4 8 7 8 8 8 9 9 8 5 3 5 6 5 9 7 7 3 5 7
12 10 12 9 9 8 6 5 7 11 10 7 6 5 6 5 6 5 3 5 5 5 4 6 6 7 7 7 7 7 7 5 6 5 4 4 4 6 6 6 5 4 4
12 10 12 9 8 8 7 5 4 9 8 7 7 6 6 6 5 5 4 4 4 2 3 4 5 5 6 4 4 5 5 4 6 4 4 3 2 5 4 2 2 2 3
11 10 10 9 8 8 8 8 6 7 8 8 7 9 9 8 7 6 6 4 4 3 1 2 2 2 2 2 2 3 3 3 4 4 4 3 4 5 6 3 2 1 2
12 11 10 10 9 6 7 8 7 6 7 6 6 5 9 9 9 7 6 6 5 4 3 4 3 2 2 2 1 0 0 1 7 3 4 3 4 5 6 8 5 6 4
12 12 11 10 10 9 9 7 7 7 6 6 6 6 7 7 7 8 6 7 7 7 6 6 6 5 5 4 2 2 2 6 6 5 4 2 4 6 7 7 8 8 9
10 11 11 11 10 9 8 8 7 7 6 6 7 7 5 7 7 8 7 3 8 7 7 8 8 8 7 6 5 4 5 4 5 4 4 3 6 7 7 9 9 10 11
12 11 10 10 10 9 6 7 8 7 8 8 8 8 8 7 6 5 4 6 7 8 8 8 7 8 7 6 4 7 5 5 5 5 4 2 8 9 8 9 10 11 11
11 9 10 10 9 9 7 5 5 5 5 6 9 8 7 6 6 6 5 5 7 8 8 8 8 8 8 6 5 5 5 6 5 5 5 6 9 10 10 11 12 12 12
11 11 10 11 9 9 6 6 6 5 5 5 7 9 7 5 6 6 5 6 6 5 7 7 6 8 8 8 8 7 7 6 5 4 6 8 10 12 12 13 13 12 13
11 10 11 11 11 9 9 6 6 6 6 7 7 8 7 7 7 6 6 6 6 6 7 7 7 7 8 9 8 8 8 8 8 5 5 7 10 13 13 14 13 13 13
10 10 10 11 11 10 10 10 8 7 8 7 7 8 10 8 7 7 7 7 7 7 7 7 8 7 7 8 8 9 9 8 9 8 7 7 10 12 12 11 12 12 12
11 9 11 11 11 12 12 10 9 8 8 8 8 10 10 10 10 9 8 8 8 7 9 8 8 7 7 7 9 9 8 9 9 10 9 8 7 9 7 9 10 10 9
10 11 10 9 11 12 12 10 8 8 8 8 8 8 10 11 11 10 9 9 9 8 8 8 8 8 7 7 7 8 7 9 10 11 10 8 6 3 5 5 3 1 3
12 12 12 10 12 12 11 10 10 10 8 8 8 8 10 11 12 11 10 10 10 8 9 8 9 9 9 8 8 8 7 8 9 8 10 6 5 5 3 5 6 6 8
11 12 12 10 12 11 8 7 7 7 8 8 8 8 10 9 11 10 10 11 10 9 9 9 11 10 9 9 6 7 7 8 7 7 7 5 6 6 6 9 7 7 12
11 12 12 12 11 7 6 6 7 8 7 7 6 8 9 9 9 10 8 9 9 10 11 12 11 11 9 9 6 7 9 11 11 9 6 5 4 5 8 8 5 4 7
11 9 9 11 9 9 7 5 4 3 4 4 4 6 7 8 8 7 8 8 9 7 11 12 12 9 8 8 7 7 5 6 4 5 4 4 8 6 8 8 7 7 5
12 11 9 8 8 8 7 4 3 3 4 4 5 4 4 5 6 6 7 7 8 7 7 9 10 12 10 9 13 7 3 5 2 2 8 6 7 6 6 8 7 7 7
10 7 8 7 6 5 5 5 6 6 6 2 3 2 2 3 5 5 5 6 6 5 6 6 4 7 10 10 5 8 11 7 5 3 4 6 6 7 5 6 6 7 7
8 6 5 4 4 3 4 4 4 6 4 5 4 5 5 5 5 4 3 5 5 4 5 5 5 5 5 7 7 2 5 4 4 5 3 5 4 4 4 4 5 6 6
5 3 3 5 4 3 2 2 4 6 6 5 5 5 5 4 4 5 3 4 5 5 5 5 6 7 7 7 6 4 6 4 5 4 2 3 4 1 2 3 2 4 5
Wind_Direction
160 144 154 153 150 145 136 128 123 120 117 112 103 100 108 97 89 75 69 69 88 91 86 83 83 80 78 74 72 70 67 64 60 59 55 63 66 62 64 44 2 63 60
151 151 152 154 152 148 146 142 135 130 125 118 109 104 103 96 89 82 75 69 83 94 103 87 85 82 80 80 73 66 66 66 62 54 44 90 69 62 56 46 34 48 46
149 150 161 151 154 153 157 150 146 142 136 130 124 118 111 103 98 90 87 84 82 79 96 100 93 89 89 79 66 63 63 76 66 52 348 59 73 52 48 52 44 42 32
148 153 154 146 150 151 162 162 162 153 142 134 125 116 110 104 105 99 97 89 78 54 56 110 108 99 90 81 68 59 57 64 64 350 60 50 50 48 46 44 41 33 17
149 151 131 146 146 151 154 182 182 164 156 139 130 121 116 100 102 97 111 103 94 79 51 104 129 112 92 84 74 63 56 51 37 299 48 43 35 53 45 44 37 54 28
148 150 133 143 151 153 158 178 206 164 146 134 140 135 127 116 106 92 125 98 110 93 66 34 95 113 105 86 79 73 67 49 297 38 30 76 19 20 49 49 43 23 20
150 150 153 150 156 161 163 173 159 146 148 154 163 160 155 150 150 149 137 128 120 98 95 43 35 50 77 74 73 81 70 36 347 10 4 345 13 342 339 65 43 15 335
154 158 153 160 164 169 175 178 186 198 174 174 195 187 176 174 174 174 180 187 183 180 204 136 52 31 32 36 43 70 80 348 265 322 321 305 45 295 294 274 198 235 299
166 173 175 179 178 178 186 189 193 174 181 181 207 242 201 176 182 190 194 196 199 204 207 207 201 212 233 250 275 78 110 259 287 301 290 278 96 283 281 288 242 223 225
177 185 183 188 187 187 183 193 196 201 201 205 229 260 206 181 190 200 207 212 223 226 222 218 215 222 235 243 239 244 253 247 264 267 260 274 286 278 271 270 278 252 236
186 193 192 190 197 198 196 182 198 210 211 217 222 231 203 219 209 210 219 205 228 240 237 229 223 226 235 239 243 247 261 266 275 272 274 129 266 278 269 268 284 274 254
196 198 199 201 201 205 203 203 210 204 212 212 214 215 219 228 231 246 253 219 240 242 247 249 248 244 235 259 226 208 250 274 277 280 279 193 261 268 270 264 273 280 275
196 200 209 209 210 210 210 208 209 213 216 219 220 218 223 227 226 223 239 225 233 212 241 222 230 234 245 255 257 258 267 268 266 265 261 227 252 260 260 261 266 272 278
198 205 204 208 212 217 221 215 221 217 219 222 220 217 219 221 229 236 236 239 237 239 240 238 242 244 244 248 256 263 261 264 265 268 266 213 246 255 259 260 264 271 272
218 209 209 207 211 214 218 225 229 231 226 233 228 221 221 228 232 235 237 238 239 238 237 240 242 243 243 247 249 250 257 260 263 265 268 211 233 251 257 261 269 273 275
228 224 217 217 219 219 221 221 224 230 236 237 238 232 225 234 237 239 240 240 241 237 240 240 243 241 245 246 249 248 254 259 258 260 262 264 217 240 258 274 274 273 277
230 230 226 223 220 224 229 232 232 228 229 235 239 237 236 233 239 241 246 245 244 235 238 236 241 240 246 245 246 243 243 250 254 253 258 258 252 196 231 248 259 269 276
240 233 230 222 226 228 232 232 232 236 231 232 237 240 237 238 239 241 244 245 247 238 234 233 234 231 226 226 236 240 239 247 247 251 247 247 245 264 188 224 216 303 313
241 242 239 231 234 232 233 234 236 239 237 241 238 239 243 240 241 242 248 251 251 245 239 237 236 236 239 227 224 232 231 235 240 240 249 259 237 235 211 127 122 120 109
245 250 249 242 237 235 238 236 235 236 234 238 241 243 248 249 245 245 249 254 250 250 244 234 236 233 245 245 234 237 232 235 236 232 237 229 214 205 163 135 101 64 74
260 253 247 244 234 214 209 219 231 232 225 233 242 248 252 250 251 251 257 264 258 246 244 242 240 240 240 248 257 247 246 241 246 251 247 225 137 113 87 104 118 113 87
270 268 253 241 232 216 220 228 245 241 235 254 228 236 246 253 254 252 255 256 250 250 249 243 239 242 248 238 226 247 272 231 217 225 202 158 103 101 95 94 105 101 93
273 261 252 240 229 222 225 226 236 252 253 248 234 245 247 268 267 269 267 260 247 238 247 248 242 234 241 237 229 242 247 238 108 69 35 74 103 94 100 102 104 104 102
293 296 256 237 220 216 213 229 237 250 258 271 287 282 269 272 276 274 279 280 279 263 247 250 277 261 256 258 236 261 261 258 240 175 71 24 39 75 83 110 107 97 102
307 287 246 216 201 195 215 252 271 270 282 286 277 279 271 260 254 274 288 293 281 279 276 273 254 234 238 253 246 221 250 229 228 223 168 153 73 17 51 87 110 110 104
330 316 199 194 198 208 236 236 251 268 281 280 273 274 263 256 249 243 257 269 276 271 265 267 265 257 254 248 251 250 227 205 193 198 167 140 119 99 68 86 101 101 114